Location: Unspecified
(38.9820°N, 94.4650°W)
Time: 14:43:14
(UTC-05:00)

CZ-3 Stage 3 - Visible Passes

Search period start: 28 July 2015 00:00
Search period end: 07 August 2015 00:00
Orbit: 434 x 34792 km, 31.0° (Epoch: 26 July)

Date Brightness Start Highest point End Pass type
(mag) Time Alt. Az. Time Alt. Az. Time Alt. Az.
29 Jul 6.2 04:21:10 23° SW 04:43:56 69° SSE 13:38:52 10° SSE visible
30 Jul 6.6 00:54:01 17° SE 00:59:11 20° ESE 09:35:39 10° ESE visible
01 Aug 6.2 04:16:07 24° SW 04:38:40 70° SSE 13:33:01 10° SSE visible
02 Aug 6.6 00:48:57 20° SE 00:53:16 21° ESE 09:30:48 10° ESE visible
04 Aug 6.2 04:11:03 26° SW 04:33:27 71° SSE 13:27:06 10° SSE visible
05 Aug 6.6 00:43:54 22° ESE 00:47:22 23° ESE 09:25:54 10° ESE visible
